[[{"header":{"parameterUnit":"m.s-1","parameterCategory":1,"la1":30.2991,"la2":30.254,"lo1":-89.0895,"lo2":-89.0444,"dy":0.0017,"dx":0.0017,"nx":28,"ny":28,"refTime":"2023-09-05T03:00:00:Z","depth":0,"parameterNumber":2,"parameterNumberName":"U-component_of_WINDS"},"data":[0,0,0,0,0,0,0,0,0,0,0,0,0,0,0,0,0,0,0,0,0,0,0,0,0,0,0,0,0,0,0,0,0,0,0,0,0,0,0,0,0,0,0,0,0,0,0,0,0,0,0,0,0,0,0,0,0,0,-5.2651,-5.2652,0,-5.2746,-5.2747,-5.2748,-5.2653,-5.2649,-5.2646,-5.2642,-5.2735,-5.274,-5.2746,0,0,0,0,0,0,0,0,0,0,0,0,0,-5.2382,-5.2388,-5.2651,-5.2652,-5.2654,-5.2746,-5.2747,-5.2749,-5.2654,-5.2649,-5.2645,-5.2641,-5.2733,-5.274,-5.2747,0,0,0,0,0,0,0,0,0,0,0,0,0,-5.249,-5.2389,-5.2651,-5.2618,-5.2616,-5.2746,-5.2747,-5.2749,-5.2655,-5.2649,-5.2644,-5.2638,-5.273,-5.2739,-5.2748,-5.2914,0,0,-5.2775,-5.2779,0,0,0,0,0,0,0,0,-5.2484,-5.25,-5.2621,-5.262,-5.2618,-5.2682,-5.2686,-5.2804,-5.2656,-5.264,-5.2642,-5.2636,-5.2721,-5.2731,-5.276,-5.2918,-5.2922,-5.2776,-5.2781,-5.2785,-5.2787,0,0,0,0,0,0,0,-5.2477,-5.2495,-5.2689,-5.2623,-5.2621,-5.2596,-5.2605,-5.2708,-5.271,-5.2641,-5.2634,-5.2647,-5.2719,-5.2752,-5.2762,-5.2924,-5.2775,-5.2783,-5.2789,-5.2792,-5.322,-5.3225,0,0,0,0,0,0,-5.2474,-5.249,-5.2686,-5.2691,-5.2536,-5.2605,-5.2616,-5.2667,-5.2709,-5.271,-5.2652,-5.2642,-5.274,-5.2752,-5.2765,-5.296,-5.2785,-5.2793,-5.2798,-5.3214,-5.3221,-5.3227,0,0,0,0,0,0,-5.2468,-5.2492,-5.2682,-5.2589,-5.2611,-5.2616,-5.2675,-5.2672,-5.2705,-5.2717,-5.2717,-5.2685,-5.2736,-5.2752,-5.2877,-5.2961,-5.2797,-5.2805,-5.3206,-5.3216,-5.3224,-5.3352,0,0,0,0,0,0,-5.2461,-5.2491,-5.2555,-5.2591,-5.2617,-5.2795,-5.268,-5.2678,-5.2721,-5.2709,-5.2749,-5.275,-5.2733,-5.2865,-5.2886,-5.2971,-5.2812,-5.3199,-5.3211,-5.3221,-5.3341,-5.3365,-5.3385,0,0,0,0,0,-5.2452,-5.2587,-5.2559,-5.2583,-5.2698,-5.28,-5.2814,-5.2793,-5.2728,-5.2792,-5.28,-5.2748,-5.295,-5.2878,-5.2902,-5.299,-5.3193,-5.3207,-5.322,-5.333,-5.336,-5.3385,0,0,0,0,0,0,-5.256,-5.2591,-5.256,-5.2712,-5.2754,-5.2784,-5.2863,-5.2825,-5.2885,-5.2872,-5.2842,-5.2852,-5.2984,-5.3,-5.292,-5.3152,-5.3061,-5.3079,-5.3136,-5.3164,-5.3186,-5.3178,-5.2819,0,0,0,0,0,-5.2602,-5.2684,-5.2706,-5.2838,-5.286,-5.2859,-5.2902,-5.2883,-5.2924,-5.2941,-5.2958,-5.2999,-5.3071,-5.3119,-5.3186,-5.3344,-5.3349,-5.3416,-5.3438,-5.3457,-5.3472,-5.3553,-5.3582,-5.3272,-5.3272,-5.3272,0,0,-5.2688,-5.2715,-5.2769,-5.286,-5.289,-5.2973,-5.2874,-5.2967,-5.3027,-5.2955,-5.3073,-5.3088,-5.3131,-5.3272,-5.3335,-5.3289,-5.356,-5.3474,-5.3488,-5.3494,-5.357,-5.36,-5.3626,-5.3281,-5.3279,-5.3278,0,0,-5.2887,-5.2918,-5.3029,-5.3062,-5.3109,-5.3107,-5.3134,-5.317,-5.3177,-5.3296,-5.3242,-5.3313,-5.3439,-5.3471,-5.3504,-5.3716,-5.3669,-5.3739,-5.3854,-5.3934,-5.3958,-5.3979,-5.4052,-5.4078,-5.3755,-5.3755,-5.3755,0,-5.2987,-5.3113,-5.3091,-5.3187,-5.3228,-5.3168,-5.3278,-5.3311,-5.3377,-5.3406,-5.3355,-5.351,-5.3535,-5.3681,-5.3733,-5.3763,-5.379,-5.3732,-5.3957,-5.3978,-5.3998,-5.4066,-5.4094,-5.3763,-5.3762,-5.3761,-5.3761,0,-5.3232,-5.332,-5.3404,-5.3471,-5.3521,-5.3625,-5.3616,-5.3669,-5.3646,-5.3649,-5.3769,-5.3798,-5.3868,-5.3902,-5.388,-5.4045,-5.4015,-5.3962,-5.3868,-5.4035,-5.4099,-5.4125,-5.3774,-5.3771,-5.3769,-5.3767,0,0,-5.35,-5.3554,-5.3585,-5.3613,-5.3662,-5.3728,-5.3828,-5.3898,-5.3943,-5.3991,-5.4072,-5.418,-5.413,-5.4167,-5.4148,-5.4219,-5.438,-5.4155,-5.4156,-5.4193,-5.456,-5.4598,-5.4629,-5.4351,-5.4356,-5.436,-5.4555,0,-5.3698,-5.3873,-5.3856,-5.402,-5.4099,-5.4043,-5.413,-5.4167,-5.4173,-5.4239,-5.4244,-5.432,-5.425,-5.4272,-5.4339,-5.4346,-5.4453,-5.4333,-5.4423,-5.4426,-5.441,-5.4663,-5.4703,-5.4886,-5.458,-5.4585,-5.4588,0,-5.3952,-5.401,-5.4183,-5.4217,-5.425,-5.4328,-5.439,-5.4455,-5.4496,-5.4495,-5.4537,-5.4505,-5.4603,-5.4511,-5.4644,-5.4562,-5.4598,-5.4607,-5.4614,-5.4619,-5.4515,-5.4671,-5.4944,-5.497,-5.4627,-5.4624,-5.4621,0,-5.4126,-5.4247,-5.4365,-5.4392,-5.4436,-5.4492,-5.4513,-5.4548,-5.4591,-5.4646,-5.4672,-5.4738,-5.4772,-5.4822,-5.4808,-5.4743,-5.4943,-5.485,-5.4942,-5.4942,-5.4983,-5.498,-5.5263,-5.5013,-5.5013,-5.5012,-5.5012,0,-5.4346,-5.4454,-5.4444,-5.4516,-5.4634,-5.4613,-5.4729,-5.4743,-5.4775,-5.4847,-5.4804,-5.4872,-5.4851,-5.4918,-5.4908,-5.5017,-5.5034,-5.5033,-5.5029,-5.5036,-5.5035,-5.5056,-5.5042,-5.502,-5.5018,-5.5017,-5.5015,0,-5.4559,-5.4558,-5.4682,-5.4714,-5.4725,-5.481,-5.4835,-5.4903,-5.4905,-5.4997,-5.5017,-5.502,-5.5097,-5.5089,-5.5174,-5.5167,-5.5302,-5.5284,-5.5288,-5.5283,-5.5374,-5.5364,-5.5677,-5.5715,-5.5444,-5.5447,-5.5449,0,-5.4699,-5.478,-5.482,-5.4866,-5.4891,-5.4966,-5.501,-5.4992,-5.5039,-5.5091,-5.5151,-5.5224,-5.5281,-5.5405,-5.5414,-5.5478,-5.5459,-5.5564,-5.5468,-5.5472,-5.5456,-5.545,-5.5457,-5.5582,-5.5585,-5.5588,-5.559,0,-5.4945,-5.494,-5.5005,-5.5071,-5.5125,-5.5175,-5.522,-5.526,-5.5247,-5.5301,-5.5379,-5.5424,-5.5511,-5.5583,-5.5644,-5.5662,-5.5623,-5.5621,-5.5644,-5.565,-5.5648,-5.5647,-5.5336,-5.5612,-5.561,-5.5609,-5.5607,-5.5606,-5.5123,-5.5191,-5.523,-5.5304,-5.5337,-5.538,-5.5444,-5.5455,-5.552,-5.559,-5.5576,-5.5663,-5.57,-5.5778,-5.5803,-5.587,-5.5831,-5.5867,-5.5875,-5.5883,-5.5892,-5.5641,-5.5881,-5.5881,-5.588,-5.588,-5.5879,0,-5.5364,-5.5386,-5.5455,-5.552,-5.5578,-5.5538,-5.5586,-5.5636,-5.5714,-5.5753,-5.581,-5.5898,-5.5968,-5.5982,-5.6048,-5.6098,-5.6081,-5.6115,-5.6109,-5.6114,-5.5925,-5.5896,-5.6127,-5.6127,-5.6127,-5.6127,-5.6127,-5.6127,-5.5496,-5.5609,-5.5608,-5.5736,-5.5757,-5.5843,-5.5874,-5.5913,-5.5943,-5.6044,-5.6102,-5.6112,-5.614,-5.6207,-5.6268,-5.627,-5.6294,-5.6335,-5.633,-5.6152,-5.6127,-5.6104,-5.6076,-5.6341,-5.6342,-5.6512,-5.6514,-5.6515]},{"header":{"parameterUnit":"m.s-1","parameterCategory":1,"la1":30.2991,"la2":30.254,"lo1":-89.0895,"lo2":-89.0444,"dy":0.0017,"dx":0.0017,"nx":28,"ny":28,"refTime":"2023-09-05T03:00:00:Z","depth":0,"parameterNumber":3,"parameterNumberName":"V-component_of_WINDS"},"data":[0,0,0,0,0,0,0,0,0,0,0,0,0,0,0,0,0,0,0,0,0,0,0,0,0,0,0,0,0,0,0,0,0,0,0,0,0,0,0,0,0,0,0,0,0,0,0,0,0,0,0,0,0,0,0,0,0,0,1.9245,1.9247,0,1.9362,1.9364,1.9365,1.9385,1.9384,1.9383,1.9382,1.9499,1.9503,1.9507,0,0,0,0,0,0,0,0,0,0,0,0,0,1.9038,1.9042,1.9245,1.9247,1.9248,1.9362,1.9364,1.9365,1.9385,1.9384,1.9383,1.9382,1.9498,1.9502,1.9507,0,0,0,0,0,0,0,0,0,0,0,0,0,1.9139,1.9043,1.9245,1.9272,1.9276,1.9362,1.9364,1.9366,1.9385,1.9384,1.9383,1.9381,1.9496,1.9502,1.9508,1.9574,0,0,1.9526,1.9529,0,0,0,0,0,0,0,0,1.9133,1.9146,1.9267,1.927,1.9274,1.9358,1.9333,1.9436,1.9386,1.9344,1.9382,1.938,1.9453,1.9462,1.9487,1.958,1.9585,1.9527,1.953,1.9533,1.9535,0,0,0,0,0,0,0,1.9126,1.9141,1.9292,1.9268,1.9273,1.9278,1.929,1.9353,1.9405,1.9347,1.9349,1.9363,1.9455,1.9482,1.949,1.9587,1.9527,1.9532,1.9536,1.9538,1.9741,1.9743,0,0,0,0,0,0,1.9114,1.9135,1.9288,1.9295,1.9199,1.9283,1.9297,1.9332,1.9404,1.9414,1.9364,1.9363,1.9472,1.9483,1.9494,1.9578,1.9533,1.9539,1.9542,1.9739,1.9742,1.9744,0,0,0,0,0,0,1.911,1.9128,1.9283,1.9216,1.9236,1.9288,1.9328,1.9335,1.9362,1.9417,1.9426,1.9382,1.9471,1.9486,1.9555,1.9582,1.9541,1.9547,1.9737,1.974,1.9743,1.9745,0,0,0,0,0,0,1.9104,1.9126,1.9152,1.9216,1.9239,1.9342,1.9329,1.9339,1.9373,1.9373,1.9436,1.9445,1.9471,1.9546,1.9561,1.959,1.9551,1.9735,1.9739,1.9742,1.9743,1.9748,1.9752,0,0,0,0,0,1.9096,1.9147,1.9153,1.9171,1.9273,1.9343,1.9357,1.9386,1.9375,1.9402,1.9437,1.9443,1.9577,1.9553,1.957,1.9601,1.9733,1.9738,1.9742,1.9741,1.9747,1.9752,0,0,0,0,0,0,1.9083,1.9156,1.9163,1.9237,1.9284,1.9347,1.9381,1.9391,1.9442,1.944,1.9474,1.9488,1.9555,1.9585,1.9557,1.967,1.9654,1.9662,1.9648,1.9654,1.9658,1.9649,1.9556,0,0,0,0,0,1.9089,1.9141,1.9201,1.926,1.9283,1.9328,1.936,1.9379,1.9429,1.9449,1.9489,1.9537,1.959,1.9624,1.9675,1.9748,1.9762,1.9778,1.9782,1.9786,1.9791,1.9833,1.9841,1.9757,1.9757,1.9757,0,0,1.9101,1.9147,1.9177,1.9258,1.9297,1.935,1.9345,1.94,1.9439,1.9457,1.9525,1.9556,1.9612,1.9683,1.9716,1.971,1.9818,1.9791,1.9793,1.9797,1.9838,1.9846,1.9853,1.9759,1.9759,1.9759,0,0,1.9149,1.919,1.9243,1.9283,1.9343,1.9373,1.9386,1.9448,1.947,1.9539,1.9554,1.9601,1.9691,1.9731,1.9762,1.9829,1.9836,1.9845,1.9867,1.9907,1.9914,1.992,1.9944,1.9952,1.9851,1.9851,1.9851,0,1.9156,1.9237,1.9269,1.9325,1.9361,1.9381,1.9436,1.9472,1.9545,1.9569,1.9561,1.9677,1.9715,1.9797,1.9813,1.9838,1.9854,1.9837,1.9911,1.9917,1.9923,1.9946,1.9955,1.9851,1.9851,1.9851,1.9851,0,1.9242,1.9298,1.9335,1.9406,1.9446,1.9501,1.9542,1.9578,1.9595,1.9625,1.9696,1.9744,1.9806,1.9827,1.9843,1.9911,1.9905,1.9904,1.9888,1.9931,1.9954,1.9963,1.9852,1.9852,1.9852,1.9851,0,0,1.9284,1.9375,1.9388,1.9421,1.949,1.9533,1.959,1.9652,1.9683,1.9733,1.9781,1.9858,1.9858,1.9894,1.9915,1.995,2.0,1.9944,1.9946,1.9953,2.0079,2.008,2.009,2.0007,2.0008,2.001,2.0075,0,1.934,1.9442,1.9475,1.9559,1.9612,1.9633,1.9682,1.9729,1.976,1.9809,1.9842,1.9897,1.9892,1.9914,1.995,1.9986,2.0026,1.9982,2.0051,2.0053,2.0036,2.0101,2.0102,2.0161,2.0084,2.0085,2.0086,0,1.942,1.9473,1.9564,1.9627,1.965,1.9694,1.9755,1.9801,1.9855,1.9875,1.9917,1.9936,1.9995,1.9978,2.006,2.003,2.006,2.0083,2.0086,2.0093,2.0072,2.011,2.018,2.0189,2.01,2.0099,2.0098,0,1.9441,1.9536,1.9602,1.963,1.9706,1.9737,1.9769,1.9823,1.9859,1.9912,1.9936,1.9994,2.0026,2.0071,2.0105,2.0089,2.0185,2.017,2.0203,2.0203,2.0222,2.022,2.0297,2.0242,2.0242,2.0242,2.0241,0,1.9501,1.9555,1.9613,1.9654,1.9716,1.9753,1.9813,1.9847,1.9895,1.9943,1.9964,2.0009,2.0051,2.0101,2.0128,2.0193,2.0207,2.0225,2.0231,2.0223,2.022,2.0242,2.0239,2.0244,2.0243,2.0243,2.0243,0,1.9534,1.9575,1.965,1.9716,1.9735,1.9777,1.9834,1.9875,1.9907,1.9968,1.9984,2.0035,2.0095,2.0134,2.021,2.0228,2.0299,2.0305,2.0281,2.0284,2.0315,2.0311,2.0409,2.0424,2.0358,2.0359,2.0359,0,1.9569,1.9612,1.9684,1.9718,1.9752,1.9806,1.9844,1.9883,1.9921,1.9987,2.002,2.0082,2.0134,2.0229,2.0272,2.0331,2.0338,2.0368,2.0347,2.0337,2.0338,2.0335,2.034,2.0371,2.0372,2.0372,2.0372,0,1.9627,1.9646,1.9699,1.9761,1.9806,1.9856,1.9906,1.9933,1.998,2.0022,2.0084,2.0125,2.0204,2.0265,2.0328,2.0362,2.0375,2.0379,2.039,2.0381,2.0366,2.0375,2.029,2.0376,2.0376,2.0376,2.0375,2.0375,1.9662,1.9702,1.9759,1.9819,1.9861,1.9908,1.995,1.9989,2.0042,2.011,2.013,2.0195,2.025,2.0337,2.0372,2.0424,2.042,2.0435,2.0439,2.0442,2.0443,2.0358,2.0435,2.0435,2.0435,2.0435,2.0435,0,1.9721,1.976,1.9815,1.9885,1.9932,1.9942,1.9999,2.0037,2.0095,2.0146,2.0197,2.027,2.033,2.0379,2.0441,2.0473,2.0481,2.0488,2.0486,2.0494,2.0442,2.0427,2.0481,2.0481,2.0481,2.0481,2.0481,2.0481,1.9757,1.9825,1.9851,1.9941,1.9979,2.0044,2.0076,2.0119,2.016,2.0241,2.0291,2.0324,2.0374,2.044,2.0496,2.0509,2.0531,2.0537,2.0551,2.0502,2.0497,2.0492,2.0478,2.0541,2.0541,2.0598,2.0598,2.0599]}]]